Simultaneous Nadir Overpasses (SNOs) Predictions

Prediction of SNOs between AQUA and METOP-B Satellite Orbit:

Table of predicted SNOs for the next 14.0 days since TLE Epoch: 12/8/2012
Index Date (AQUA) Time (AQUA) AQUA Lat,Lon Date (METOP-B) Time (METOP-B) METOP-B Lat,Lon Distance(km) Time Diff (sec)
1 12/08/2012 06:57:49 -73.70,-110.06 12/08/2012 06:56:35 -73.69,-110.07 1.39 74
2 12/08/2012 07:47:17 73.78, 57.42 12/08/2012 07:47:11 73.79, 57.49 2.52 6
3 12/08/2012 08:36:44 -73.85,-135.10 12/08/2012 08:37:53 -73.82,-135.10 3.04 69
4 12/11/2012 02:32:08 -73.73, -43.68 12/11/2012 02:30:58 -73.71, -43.63 2.61 70
5 12/11/2012 03:21:36 73.75, 123.90 12/11/2012 03:21:36 73.75, 123.81 2.69 0
6 12/11/2012 04:11:03 -73.82, -68.61 12/11/2012 04:12:17 -73.84, -68.66 2.48 74
7 12/13/2012 22:06:27 -73.71, 22.77 12/13/2012 22:05:22 -73.73, 22.83 2.39 65
8 12/13/2012 22:55:56 73.79,-169.77 12/13/2012 22:56:00 73.77,-169.73 2.69 4
9 12/13/2012 23:45:26 -74.01, -2.62 12/13/2012 23:46:37 -74.05, -1.72 27.83 71
10 12/16/2012 17:40:46 -73.71, 89.19 12/16/2012 17:39:47 -73.70, 89.17 1.55 59
11 12/16/2012 18:30:15 73.80,-103.36 12/16/2012 18:30:24 73.79,-103.27 2.98 9
12 12/16/2012 19:19:49 -74.22, 63.33 12/16/2012 19:20:58 -74.22, 65.11 54.07 69
13 12/19/2012 13:15:04 -73.73, 155.58 12/19/2012 13:14:10 -73.73, 155.64 2.15 54
14 12/19/2012 14:04:32 73.77, -36.87 12/19/2012 14:04:48 73.77, -36.91 1.20 16




NCC Satellite Simultaneous Nadir Overpasses (SNOs) Prediction Service
